#timestamp,LO_Frequency,Hit,StdDev 
1680760815.7,286047001.1,N
1680760835.6,286047003.4,N
1680760855.4,286047005.5,N
1680760875.2,286047008.9,N
1680760895.1,286047012.1,N
1680760896.0,286047012.1,N
1680760915.8,286047014.0,N
1680760935.6,286047013.5,N
1680760955.5,286047010.2,N
1680760975.3,286047002.3,N
1680760995.2,286046995.5,N
1680761015.9,286046992.3,N
1680761035.7,286046988.9,N
1680761055.6,286046991.4,N
1680761075.4,286046995.2,N
1680761095.2,286046996.3,N
1680761115.1,286046992.4,N
1680761116.0,286046992.4,N
1680761135.8,286046993.3,N
1680761155.7,286046987.3,N
1680761175.5,286046985.4,N
1680761195.3,286046991.6,N
1680761215.2,286046991.5,N
1680761235.0,286046989.0,N
1680761235.9,286046989.0,N
1680761255.7,286046990.4,N
1680761275.6,286046989.8,N
1680761295.4,286046991.6,N
1680761315.3,286046992.5,N
1680761335.1,286046993.7,N
1680761336.0,286046993.7,N
1680761355.8,286046993.6,N
1680761375.7,286046994.9,N
1680761395.5,286046996.2,N
1680761415.3,286046997.1,N
1680761435.2,286046997.3,N
1680761455.0,286046995.8,N
1680761455.9,286046995.8,N
1680761475.8,286046997.1,N
1680761495.6,286046998.7,N
1680761515.4,286046998.7,N
1680761535.3,286046994.6,N
1680761555.1,286046991.8,N
1680761575.9,286046990.7,N
1680761595.7,286046987.2,Y
1680761615.5,286046990.8,P
1680761635.4,286046987.9,P
1680761655.2,286046988.5,P
1680761675.0,286046996.3,N
1680761675.9,286046996.3,N
1680761695.8,286046993.3,N
1680761715.6,286046994.2,N
1680761735.5,286046995.5,N
1680761755.3,286046997.6,N
1680761775.1,286046994.4,N
1680761795.9,286046991.1,N
1680761815.7,286046989.0,Y
1680761835.5,286046993.9,P
1680761855.4,286046994.6,P
1680761875.2,286046997.4,P
1680761895.1,286046999.1,N
1680761896.0,286046999.1,N
1680761915.8,286046995.6,N
1680761935.6,286046995.4,N
1680761955.5,286046996.1,N
1680761975.3,286046993.3,Y
1680761995.2,286047001.8,P
1680762015.9,286047006.5,N
1680762035.7,286047005.7,N
1680762055.6,286047000.4,N
1680762075.4,286046995.4,N
1680762095.2,286046995.6,N
1680762115.1,286046996.4,N
1680762116.0,286046996.4,N
1680762135.8,286047000.1,N
1680762155.7,286047006.4,N
1680762175.5,286047009.4,N
1680762195.3,286047014.8,Y
1680762215.2,286047016.2,P
1680762235.0,286047018.4,N
1680762235.9,286047018.4,N
1680762255.8,286047018.4,N
1680762275.6,286047016.2,N
1680762295.4,286047012.7,N
1680762315.3,286047007.6,N
1680762335.1,286047001.0,N
1680762355.8,286047002.6,N
1680762375.7,286047006.6,N
1680762395.5,286047007.2,N
1680762415.4,286046997.4,N
1680762435.2,286046995.2,N
1680762455.0,286046995.5,N
1680762455.9,286046995.5,N
1680762475.8,286046996.7,N
1680762525.6,286047002.7,E
1680762535.6,286047002.2,N
1680762555.4,286047006.5,P
1680762575.2,286047012.0,P
1680762595.1,286047007.7,N
1680762596.0,286047007.7,N
1680762615.8,286047012.0,Y
1680762635.7,286046999.9,P
1680762655.5,286047002.0,N
1680762675.3,286047003.0,N
1680762695.2,286046999.7,N
1680762715.9,286046998.9,N
1680762735.7,286047002.9,N
1680762755.6,286047008.4,Y
1680762775.4,286047001.8,P
1680762795.3,286047004.4,P
1680762815.1,286047002.2,N
1680762816.0,286047002.2,N
1680762835.8,286047002.7,N
1680762855.7,286047001.5,N
1680762875.5,286047004.2,Y
1680762895.3,286047000.9,P
1680762915.2,286047001.2,N
1680762935.0,286047000.7,N
1680762935.9,286047000.7,N
1680762955.8,286046999.8,N
1680762975.6,286047003.7,Y
1680762995.4,286047003.7,P
1680763015.3,286047001.7,N
1680763035.1,286047000.8,N
1680763055.8,286047002.3,N
1680763075.7,286046998.3,N
1680763095.5,286047000.1,N
1680763115.4,286047003.3,N
1680763135.2,286047002.7,N
1680763155.0,286046995.1,Y
1680763155.9,286046995.1,P
1680763175.8,286046996.0,N
1680763195.6,286047002.8,N
1680763215.5,286047006.1,N
1680763235.3,286047007.0,N
1680763255.1,286047011.6,N
1680763275.9,286047014.2,N
1680763295.7,286047016.5,N
1680763315.5,286047019.7,N
1680763335.4,286047023.1,N
1680763355.2,286047027.3,Y
1680763375.1,286047024.0,P
1680763376.0,286047024.0,P
1680763395.8,286047031.8,P
1680763415.6,286047034.6,Y
1680763435.5,286047014.0,P
1680763455.3,286047013.2,P
1680763475.1,286047014.3,P
1680763495.9,286047014.7,Y
1680763515.7,286047003.6,P
1680763535.6,286047004.1,N
1680763555.4,286047002.5,N
1680763575.2,286046999.2,N
1680763595.1,286046993.9,N
1680763596.0,286046993.9,N
1680763615.8,286046991.2,N
1680763635.6,286046987.5,N
1680763655.5,286046989.0,N
1680763675.3,286046984.7,N
1680763695.2,286046979.9,N
1680763715.9,286046978.6,N
1680763735.7,286046978.8,N
1680763755.6,286046979.9,N
1680763775.4,286046982.9,N
1680763795.2,286046986.6,N
1680763815.1,286046988.8,N
1680763816.0,286046988.8,N
1680763835.8,286046990.1,N
1680763855.7,286046991.1,N
1680763875.5,286046997.5,N
1680763895.3,286046991.2,N
1680763915.2,286046988.2,N
1680763935.0,286046986.4,N
1680763935.9,286046986.4,N
1680763955.8,286046988.2,N
1680763975.6,286046982.8,N
1680763995.4,286046973.4,Y
1680764015.3,286046976.3,P
1680764035.1,286046971.7,P
1680764055.8,286046967.8,P
1680764075.7,286046972.3,Y
1680764095.5,286046996.2,P
1680764115.4,286046998.8,N
1680764135.2,286047001.8,N
1680764155.0,286047005.9,N
1680764155.9,286047005.9,N
1680764175.8,286047004.4,N
1680764195.6,286047002.4,N
1680764215.5,286047000.6,N
1680764235.3,286047001.8,N
1680764255.1,286047002.4,N
1680764275.9,286046998.7,N
1680764295.7,286046996.1,N
1680764315.5,286046988.7,N
1680764335.4,286046990.5,N
1680764355.2,286046993.0,N
1680764375.1,286046990.5,N
1680764376.0,286046990.5,N
1680764395.8,286046990.4,N
